TimeCET,TemperatureF,Dew PointF,Humidity,Sea Level PressureIn,VisibilityMPH,Wind Direction,Wind SpeedMPH,Gust SpeedMPH,PrecipitationIn,Events,Conditions,WindDirDegrees,DateUTC
12:00 AM,43,36,69,30.11,28,South,15.7,,,,Overcast,190,2013-12-30 23:00:00
12:25 AM,42.8,35.6,76,30.06,6.2,South,13.8,-,N/A,,Overcast,190,2013-12-30 23:25:00
12:55 AM,42.8,37.4,81,30.06,6.2,SSW,13.8,-,N/A,,Overcast,200,2013-12-30 23:55:00
1:00 AM,42,36,74,30.11,28,SSW,13.4,,,,Partly Cloudy,200,2013-12-31 00:00:00
1:25 AM,42.8,37.4,81,30.06,6.2,South,10.4,-,N/A,,Overcast,180,2013-12-31 00:25:00
1:55 AM,42.8,37.4,81,30.06,6.2,SSW,11.5,-,N/A,,Overcast,200,2013-12-31 00:55:00
2:00 AM,42,37,75,30.11,28,SW,13.4,,,,Overcast,220,2013-12-31 01:00:00
2:25 AM,42.8,37.4,81,30.06,6.2,SSW,13.8,-,N/A,,Overcast,210,2013-12-31 01:25:00
2:55 AM,41.0,37.4,87,30.06,6.2,SSW,10.4,-,N/A,,Overcast,200,2013-12-31 01:55:00
3:00 AM,42,37,76,30.11,22,SSW,11.2,,,,Overcast,200,2013-12-31 02:00:00
3:25 AM,42.8,37.4,81,30.06,6.2,South,8.1,-,N/A,,Overcast,190,2013-12-31 02:25:00
3:55 AM,42.8,37.4,81,30.06,6.2,South,8.1,-,N/A,,Overcast,180,2013-12-31 02:55:00
4:00 AM,42,37,75,30.10,25,South,8.9,,,,Overcast,180,2013-12-31 03:00:00
4:25 AM,42.8,37.4,81,30.06,6.2,SSE,8.1,-,N/A,,Overcast,160,2013-12-31 03:25:00
4:55 AM,41.0,37.4,87,30.04,6.2,SSE,8.1,-,N/A,,Mostly Cloudy,160,2013-12-31 03:55:00
5:00 AM,41,37,82,30.07,18,South,6.7,,,Rain,Drizzle,170,2013-12-31 04:00:00
5:25 AM,41.0,37.4,87,30.04,6.2,SSE,9.2,-,N/A,,Partly Cloudy,160,2013-12-31 04:25:00
5:55 AM,41.0,37.4,87,30.04,6.2,South,11.5,-,N/A,,Drizzle,190,2013-12-31 04:55:00
6:00 AM,41,37,82,30.04,12,South,11.2,,,Rain,Light Drizzle,180,2013-12-31 05:00:00
6:25 AM,41.0,37.4,87,30.01,6.2,South,12.7,-,N/A,,Partly Cloudy,180,2013-12-31 05:25:00
6:55 AM,41.0,37.4,87,30.01,6.2,South,12.7,-,N/A,,Partly Cloudy,180,2013-12-31 05:55:00
7:00 AM,42,38,79,30.04,22,South,13.4,,,Rain,Rain,180,2013-12-31 06:00:00
7:25 AM,41.0,37.4,87,30.01,6.2,South,15.0,-,N/A,,Scattered Clouds,190,2013-12-31 06:25:00
7:55 AM,41.0,35.6,81,30.01,6.2,South,16.1,-,N/A,,Light Drizzle,180,2013-12-31 06:55:00
8:00 AM,42,36,71,30.02,25,South,15.7,,,Rain,Drizzle,170,2013-12-31 07:00:00
8:25 AM,41.0,35.6,81,29.98,6.2,South,13.8,-,N/A,,Unknown,170,2013-12-31 07:25:00
8:55 AM,42.8,33.8,70,29.98,6.2,South,12.7,-,N/A,,Unknown,180,2013-12-31 07:55:00
9:00 AM,42,34,66,30.01,25,South,13.4,,,,,180,2013-12-31 08:00:00
9:25 AM,42.8,33.8,70,29.98,6.2,South,15.0,-,N/A,,Unknown,180,2013-12-31 08:25:00
9:55 AM,44.6,35.6,71,29.98,6.2,South,16.1,-,N/A,,Unknown,170,2013-12-31 08:55:00
10:00 AM,44,36,63,29.99,25,South,13.4,,,,Mostly Cloudy,170,2013-12-31 09:00:00
10:25 AM,44.6,35.6,71,29.95,6.2,South,15.0,-,N/A,,Unknown,170,2013-12-31 09:25:00
10:55 AM,44.6,37.4,76,29.95,6.2,South,12.7,-,N/A,,Unknown,170,2013-12-31 09:55:00
11:00 AM,45,37,66,29.98,22,South,15.7,,,,Mostly Cloudy,170,2013-12-31 10:00:00
11:25 AM,44.6,37.4,76,29.95,6.2,South,16.1,-,N/A,,Unknown,180,2013-12-31 10:25:00
11:55 AM,46.4,35.6,66,29.95,6.2,South,13.8,-,N/A,,Unknown,180,2013-12-31 10:55:00
12:00 PM,46,36,57,29.96,19,South,17.9,,,,Overcast,180,2013-12-31 11:00:00
12:25 PM,46.4,35.6,66,29.92,6.2,South,13.8,-,N/A,,Unknown,170,2013-12-31 11:25:00
12:55 PM,46.4,35.6,66,29.92,6.2,South,12.7,-,N/A,,Unknown,180,2013-12-31 11:55:00
1:00 PM,47,34,50,29.93,25,South,15.7,,,,Partly Cloudy,180,2013-12-31 12:00:00
1:25 PM,48.2,33.8,58,29.89,6.2,South,12.7,-,N/A,,Unknown,180,2013-12-31 12:25:00
1:55 PM,48.2,33.8,58,29.89,6.2,South,12.7,-,N/A,,Unknown,170,2013-12-31 12:55:00
2:00 PM,49,31,38,29.90,19,South,13.4,,,,Mostly Cloudy,180,2013-12-31 13:00:00
2:25 PM,48.2,32.0,54,29.86,6.2,South,11.5,-,N/A,,Unknown,180,2013-12-31 13:25:00
2:55 PM,50.0,30.2,47,29.86,6.2,South,10.4,-,N/A,,Unknown,190,2013-12-31 13:55:00
3:00 PM,49,31,37,29.87,28,South,13.4,,,,Overcast,180,2013-12-31 14:00:00
3:25 PM,48.2,32.0,54,29.86,6.2,South,12.7,-,N/A,,Unknown,190,2013-12-31 14:25:00
3:55 PM,48.2,32.0,54,29.83,6.2,South,10.4,-,N/A,,Unknown,180,2013-12-31 14:55:00
4:00 PM,48,32,42,29.86,28,South,8.9,,,,Overcast,170,2013-12-31 15:00:00
4:25 PM,46.4,33.8,62,29.86,6.2,SW,9.2,-,N/A,,Unknown,220,2013-12-31 15:25:00
4:55 PM,46.4,33.8,62,29.83,6.2,South,11.5,-,N/A,,Unknown,190,2013-12-31 15:55:00
5:00 PM,46,33,48,29.86,28,South,11.2,,,,Overcast,180,2013-12-31 16:00:00
5:25 PM,46.4,32.0,57,29.83,6.2,SSE,8.1,-,N/A,,Unknown,160,2013-12-31 16:25:00
5:55 PM,46.4,32.0,57,29.83,6.2,SSE,15.0,-,N/A,,Unknown,160,2013-12-31 16:55:00
6:00 PM,45,31,46,29.84,28,SSE,13.4,,,,Overcast,150,2013-12-31 17:00:00
6:25 PM,44.6,30.2,57,29.80,6.2,SSE,15.0,-,N/A,,Unknown,160,2013-12-31 17:25:00
6:55 PM,44.6,30.2,57,29.80,6.2,South,13.8,-,N/A,,Unknown,170,2013-12-31 17:55:00
7:00 PM,45,31,45,29.83,28,South,15.7,,,,Partly Cloudy,170,2013-12-31 18:00:00
7:25 PM,44.6,30.2,57,29.80,6.2,South,16.1,-,N/A,,Unknown,170,2013-12-31 18:25:00
7:55 PM,46.4,30.2,53,29.77,6.2,South,19.6,-,N/A,,Unknown,170,2013-12-31 18:55:00
8:00 PM,46,30,42,29.82,28,South,13.4,,,,Overcast,180,2013-12-31 19:00:00
8:25 PM,44.6,30.2,57,29.80,6.2,South,11.5,-,N/A,,Unknown,190,2013-12-31 19:25:00
8:55 PM,46.4,30.2,53,29.77,6.2,South,15.0,-,N/A,,Unknown,170,2013-12-31 19:55:00
9:00 PM,46,29,40,29.81,28,South,15.7,,,,Overcast,170,2013-12-31 20:00:00
9:25 PM,46.4,30.2,53,29.80,6.2,South,16.1,-,N/A,,Overcast,190,2013-12-31 20:25:00
9:55 PM,44.6,32.0,61,29.77,6.2,South,16.1,-,N/A,,Overcast,180,2013-12-31 20:55:00
10:00 PM,44,32,52,29.81,25,South,15.7,,,Rain,Light Rain Showers,180,2013-12-31 21:00:00
10:25 PM,44.6,32.0,61,29.77,6.2,South,13.8,-,N/A,,Overcast,180,2013-12-31 21:25:00
10:55 PM,44.6,33.8,66,29.77,6.2,SSW,12.7,-,N/A,,Overcast,200,2013-12-31 21:55:00
11:00 PM,44,34,59,29.81,28,South,11.2,,,Rain,Rain Showers,190,2013-12-31 22:00:00
11:25 PM,42.8,35.6,76,29.80,6.2,SSW,16.1,-,N/A,Rain,Light Rain,200,2013-12-31 22:25:00
11:55 PM,42.8,37.4,81,29.80,6.2,SSW,19.6,-,N/A,Rain,Heavy Drizzle,200,2013-12-31 22:55:00